FENGYUN 1C DEB

Satellite information

Favourite Embed

Satellite Type and Status

DEBRISIN ORBIT

Key statistics

Satellite FENGYUN 1C DEB at a glance.

Uptime

9615

Days in orbit

Revolutions

≈ 14.6

Per day

Orbit

SSO

Sun Synchronous Orbit

Inclination

98.9

Latest

Satellite identification and parameters

Extended collection of information and parameters for FENGYUN 1C DEB.

Object identification

Identified? True

Debris? True

Object name: FENGYUN 1C DEB

International designator: 1999-025BZE

Object number (NORAD): 31563

Object ID (CCSDS): 31563

Country: PEOPLES REPUBLIC OF CHINA (PRC)

Current information (Y/N): Y

RCS size: SMALL

Orbital parameters

Period: 98.357 minutes

Inclination: 98.9418 deg

SMA: 7058.251 km

Apoapsis: 762.249 km

Periapsis: 597.984 km

RAAN: 31.1252 deg

Eccentricy: 0.01163637

Argument of periapsis: 27.8828 deg

Mean anomaly: 332.8543 deg

Mean motion: 14.64054008 rev/day

Mean motion (dot): 0.00006811 rev/day2

B* drag term: 0.0011859301 1/REarth

Two-line elements (TLE)

Creation date: Sept. 4, 2025, 4:29 a.m.

Reference frame: TEME

Reference center: EARTH

Epoch: Sept. 3, 2025, 8:43 a.m. UTC

TLE line 0: 0 FENGYUN 1C DEB

TLE line 1: 1 31563U 99025BZE 25246.36359817 .00006811 00000-0 11859-2 0 9996

TLE line 2: 2 31563 98.9418 31.1252 0116364 27.8828 332.8543 14.64054008970757

Live tracking on map

Real-time ground track for satellite FENGYUN 1C DEB.

In-orbit conjunctions

A list of the most updated potential collisions computed for object FENGYUN 1C DEB.

Target Orbit TCA Probability of collision Miss distance Type
COSMOS 1275 DEB LEO 2025-07-29 19:32:13 0.0007985229 67.0 (m) DEBRIS
SL-24 R/B SSO 2025-02-09 04:46:06 0.0003114876 97.0 (m) ROCKET BODY

Associated space launch

Chinese polar orbiting meteorological satellite

FENGYUN 1C DEB was lifted into orbit during the mission ‘Long March 4B | Feng Yun 1C’, on board a Long March 4B space rocket.

The launch took place on May 10, 1999, 1:33 a.m. from Launch Complex 7.

For more information about the launch, click the button.

Launch to space Long March 4B | Feng Yun 1C
Long March 4B | Feng Yun 1C

Agency: N/A

Status: Launch Successful

Launch date: May 10, 1999, 1:33 a.m. UTC

Rocket: Long March 4B

Launch pad: Launch Complex 7

Location: Taiyuan Satellite Launch Center, People's Republic of China

...

Latest news about this satellite

There are no fresh news available about this satellite. Check back as we update our databases every day.


Newsletter sign-up

Weekly statistics, charts and insights to help you stay on top of the space industry.